Regional Weather Roundup
Issued by NWS Grand Forks, ND

Home | Current Version | Previous Version | Graphics & Text | Print | Product List | Glossary On
Versions: 1 2 3 4 5 6 7 8 9 10 11 12 13 14 15 16 17 18 19 20 21 22 23 24 25 26 27 28 29 30 31 32 33 34 35 36 37 38 39 40 41 42 43 44 45 46 47 48 49 50
000
ASUS43 KFGF 040431
RWRFGF
PRAIRIE TO PINES  WEATHER ROUNDUP
NATIONAL WEATHER SERVICE EASTERN NORTH DAKOTA/GRAND FORKS ND
1100 PM CDT MON AUG 03 2015

 **SATELLITE DATA USED TO AUGMENT SKY COVER AT AUTOMATED STATIONS**
 *****  WEATHER ACROSS EASTERN NORTH DAKOTA  *****

CITY           SKY/WX    TMP DP  RH WIND       PRES   REMARKS
GRAND FORKS    CLEAR     61  52  72 E5        29.92R
GRAND FRKS AFB CLEAR     55  50  83 W5        29.92R
GRAND FRKS NWS   N/A     61 N/A N/A MISG        N/A
DEVILS LAKE    CLEAR     61  50  67 SW3       29.96R
FARGO          CLEAR     59  51  75 SW5       29.94R
WAHPETON ARPT  CLEAR     59  48  67 CALM      29.96S
$$

 ***** WEATHER ACROSS CENTRAL AND WESTERN NORTH DAKOTA  *****

CITY           SKY/WX    TMP DP  RH WIND       PRES   REMARKS
BISMARCK       CLEAR     65  52  62 NE6       29.98R
MINOT          CLEAR     65  49  56 S5        29.97R
JAMESTOWN      CLEAR     58  53  84 NE3       29.97R
MINOT AFB      CLEAR     61  51  69 S5        29.96R
GARRISON         N/A     59  53  80 NE3       29.98R
WILLISTON      CLEAR     69  48  47 E5        29.97R
DICKINSON      PTCLDY    62  51  67 E9        29.98R
HETTINGER      MOCLDY    69  52  54 E10       29.99R
$$

 *****  OTHER AIRPORT OBSERVATIONS IN OUR AREA  *****

CITY           SKY/WX    TMP DP  RH WIND       PRES   REMARKS
WALHALLA       FAIR      55  55 100 MISG      29.94S
GRAFTON AIRPOR FAIR      61  54  77 CALM      29.93S
VALLEY CITY AR FAIR      57  52  82 CALM      29.97S
CANDO          NOT AVBL
CAVALIER APRT  FAIR      57  54  88 W5        29.93S
GWINNER        NOT AVBL
ROLLA          NOT AVBL
 ***** THE ABOVE OBSERVATIONS ARE NON NWS ARE NOT QUALITY
       CONTROLLED AND MAY MIS-REPORT RAIN FOR SNOW...
$$

  *****  WEATHER ACROSS NORTHERN MINNESOTA  *****

CITY           SKY/WX    TMP DP  RH WIND       PRES   REMARKS
FLAG ISLAND    CLEAR     64  52  63 NW15      29.89S
WARROAD        CLEAR     57  54  88 NW6       29.92S
ROSEAU         CLEAR     55  52  88 CALM      29.91S
HALLOCK        CLEAR     57  52  82 W3        29.92R
THF RVR FALLS  CLEAR     54  50  87 CALM      29.93S
BAUDETTE       MOCLDY    58  52  80 W5        29.90R
WASKISH        CLEAR     63  54  72 NW5       29.91S
CROOKSTON      CLEAR     61  54  77 CALM      29.94R
STEPHEN NDAWN    N/A     59  54  82 SW2         N/A
GREENBUSH NDAW   N/A     54  52  94 NW2         N/A
$$
  *****  WEATHER ACROSS CENTRAL AND WEST MINNESOTA  *****

CITY           SKY/WX    TMP DP  RH WIND       PRES   REMARKS
FOSSTON        CLEAR     48  45  87 CALM      29.95R
BEMIDJI        CLEAR     55  45  68 W3        29.93S
PARK RAPIDS    CLEAR     57  49  74 W3        29.94S
ELBOW LAKE     FAIR      60  56  85 CALM      29.97S
WADENA         CLEAR     55  48  76 CALM      29.96S
DETROIT LAKES  CLEAR     61  54  77 CALM      29.97S
MOORHEAD       CLEAR     59  52  77 CALM      29.96R
FERGUS FALLS   CLEAR     64  54  68 CALM      29.96S
MORRIS MN      CLEAR     57  54  88 CALM      29.96S
STAPLES        CLEAR     55  50  82 CALM      29.96R
$$
  *****  WEATHER ELSEWHERE ACROSS MINNESOTA  *****

CITY           SKY/WX    TMP DP  RH WIND       PRES   REMARKS
DULUTH         PTCLDY    59  51  75 W6        29.90S
INTRNTL FALLS  CLEAR     49  48  97 CALM      29.88S
ELY            MOCLDY    55  54  94 NW6       29.88F
CLOQUET        CLEAR     55  48  76 W5        29.92S
WHEATON        CLEAR     55  50  82 CALM      29.98S
BRAINERD       CLEAR     55  51  86 CALM      29.94S
HIBBING        PTCLDY    50  49  96 CALM      29.90S
ALEXANDRIA     CLEAR     61  53  75 CALM      29.99R
SAINT CLOUD    CLEAR     61  52  72 NW6       29.95R
MINNEAPOLIS    PTCLDY    69  53  56 W6        29.93R
$$

  *****  WEATHER ACROSS SOUTH DAKOTA  *****

CITY           SKY/WX    TMP DP  RH WIND       PRES   REMARKS
SIOUX FALLS    PTCLDY    64  60  87 NE3       29.98R
BROOKINGS      CLEAR     63  54  72 CALM      30.01S
WATERTOWN      CLEAR     64  52  64 CALM      29.99S
HURON          CLEAR     67  57  70 SE7       29.96S
SISSETON         N/A     58  53  84 CALM      29.96S
ABERDEEN       CLEAR     63  55  75 E7        29.97R
MITCHELL       PTCLDY    65  59  81 E6        29.97S
PIERRE         MOCLDY    69  56  62 SE7       29.95R
MOBRIDGE       CLEAR     72  52  49 E13       29.94S
RAPID CITY     MOCLDY    71  59  65 E10       29.99R
$$

  *****  SOME WEATHER IN NEARBY STATES *****

CITY           SKY/WX    TMP DP  RH WIND       PRES   REMARKS
GLASGOW MT     CLEAR     74  44  34 E15       29.90R
GREAT FALLS MT MOCLDY    79  47  32 SW13      29.80R
CHEYENNE WY    CLOUDY    68  49  50 S16G22    30.14R
SCOTTSBLUFF NE MOCLDY    72  56  57 SE6       29.99R
OMAHA NE       CLOUDY    74  65  73 E6        29.97R
DES MOINES IA  PTCLDY    73  57  57 N3        29.96S
DAVENPORT IA   CLEAR     61  57  87 SW6       29.96R
CHICAGO IL     CLEAR     69  55  60 W6        29.90S
EAU CLAIRE WI  CLOUDY    66  53  63 W5        29.89S
LA CROSSE WI   CLEAR     65  55  70 SE5       29.91R
$$

  *****  SOME NATIONAL WEATHER *****

CITY           SKY/WX    TMP DP  RH WIND       PRES   REMARKS
LA GUARDIA NY  PTCLDY    84  60  44 SW10      29.80F
RALEIGH NC     PTCLDY    80  68  66 SW14G20   29.97R
ATLANTA GA     PTCLDY    85  63  47 VRB3      29.96R
NEW ORLEANS LA PTCLDY    80  72  76 S8        29.93R
OKLAHOMA CITY  CLOUDY    77  68  73 SE7       29.93R
ALBUQUERQUE NM PTCLDY    81  45  28 N9        30.12R
SALT LAKE CITY PTCLDY    66  59  78 E8        30.06F
LOS ANGELES CA PTCLDY    71  64  78 SW6       29.86S
BOISE ID       PTCLDY    85  48  27 CALM      29.86R
SEATTLE WA     PTCLDY    72  55  56 W5        29.93R
$$

*** WEATHER ACROSS MANITOBA...SASKATCHEWAN AND ONTARIO ***
                ***ONTARIO***

CITY           SKY/WX    TMP DP  RH WIND       PRES   REMARKS
GERALDTON      CLOUDY    54  50  87 NW6       29.77S
THUNDER BAY    CLOUDY    57  55  94 W3        29.82R
SIOUX LOOKOUT  CLOUDY    54  50  87 N3        29.87R
TORONTO        MOCLDY    66  55  68 W6        29.80R
BIG TROUT LK   CLOUDY    52  50  93 N7        29.84R
PICKLE LAKE    NOT AVBL
DRYDEN         MOCLDY    54  52  94 NE7       29.87R
KENORA         MOCLDY    57  52  82 N6        29.90R
$$
                *** MANITOBA***

CITY           SKY/WX    TMP DP  RH WIND       PRES   REMARKS
BRANDON        PTCLDY    57  52  82 E2        29.96R
DAUPHIN        CLEAR     55  52  88 CALM      29.96R
ISLAND LAKE    MOCLDY    54  50  87 N5        29.95R
PILOT MOUND      N/A     55  50  82 E7          N/A
THE PAS        PTCLDY    61  52  72 NE2       29.98R
THOMPSON       LGT RAIN  55  54  94 CALM      29.97S
WINNIPEG       CLEAR     57  52  82 CALM      29.94R
LYNN LAKE      CLOUDY    59  52  77 N6        29.98S
CHURCHILL      DRIZZLE   46  46 100 N9        29.95S FOG
GILLAM         CLOUDY    54  48  82 N5        29.95S
$$
                ***SASKATCHEWAN***

CITY           SKY/WX    TMP DP  RH WIND       PRES   REMARKS
ESTEVAN        PTCLDY    61  50  67 E9        29.98R
KINDERSLEY     MOCLDY    66  54  63 E15       29.87S
LLOYDMINSTER   MOCLDY    66  52  59 E13       29.87S
PRINCE ALBERT  PTCLDY    59  55  88 NE3       29.94R
REGINA         CLEAR     64  54  68 E8        29.97R
YORKTON        CLEAR     61  52  72 NE2       29.97R
N. BATTLEFORD  PTCLDY    66  54  63 E13G18    29.93S
LA RONGE       PTCLDY    59  46  63 NE6       29.96S
SASKATOON      PTCLDY    66  55  68 SE9       29.96R
SWIFT CURRENT  CLEAR     64  57  77 SE14G24   29.92R
$$
NOTE: THESE ARE AUTOMATED STATIONS WITH LIMITED QUALITY CONTROL
      "FAIR" INDICATES FEW OR NO CLOUDS BELOW 12,000 FEET WITH NO
      SIGNIFICANT WEATHER AND/OR OBSTRUCTIONS TO VISIBILITY.
      SKY/WX - SKY CONDITION AND SIGNIFICANT WEATHER.
      TMP - AIR TEMPERATURE.    DP   - DEWPOINT TEMPERATURE.
      RH  - RELATIVE HUMIDITY.  PRES - PRESSURE.
      HX  - HEAT INDEX.         WCI  - WIND CHILL INDEX.
$



USA.gov is the U.S. government's official web portal to all federal, state and local government web resources and services.